GLOBALSTAR M022 [-]

Last updated on July 6, 2021, 3:36 p.m. UTC

1 25649U 99012A   21186.89310255 -.00000102  00000-0 -17892-3 0  9993
2 25649  52.0025 251.4937 0002968 197.9742 333.3585 12.02447387  2861
UTC
Height (km)
Latitude
Longitude
Inclination
Orbital Period
UTC large
Height (km)
Speed (km/s)
/
Latitude / Longitude
Inclination (degrees)
Orbital Period (minutes)
Azimuth
Elevation
Range (km)
Doppler Factor
iOS Compass Heading
iOS Angle